Location: *
(37.5724°S, 58.0067°E)
Time: 10:40:43
(UTC+00:00)

CZ-3A R/B - Pass Details

Date: 25 January 2021
Orbit: 1317 x 30229 km, 55.5° (Epoch: 26 February)

Event Time Altitude Azimuth Distance (km) Brightness Sun altitude
Rises 15:19:28 0° 22° (NNE) 33,523 10.4 0.3°
Reaches altitude 10° 16:23:12 10° 23° (NNE) 26,809 9.8 -10.8°
Maximum altitude 17:51:46 31° 59° (ENE) 9,641 7.5 -23.7°
Drops below altitude 10° 18:11:20 10° 112° (ESE) 6,499 7.1 -26.0°
Sets 18:14:56 0° 123° (ESE) 6,625 7.3 -26.4°
